Location: The Rolnick Observatory
(41.1711°N, 73.3275°W)
Time: 06:33:20
(UTC-04:00)

Envisat - Pass Details

Date: 24 February 2019
Orbit: 764 x 766 km, 98.2° (Epoch: 21 March)

Event Time Altitude Azimuth Distance (km) Brightness Sun altitude
Rises 18:02:05 0° 150° (SSE) 3,220 6.0 -5.3°
Reaches altitude 10° 18:04:26 10° 145° (SE) 2,298 5.2 -5.7°
Maximum altitude 18:09:18 49° 72° (ENE) 984 3.2 -6.6°
Drops below altitude 10° 18:14:11 10° 358° (N) 2,312 5.5 -7.5°
Sets 18:16:33 0° 353° (N) 3,242 6.3 -8.0°
